Satellite: AEROCUB3
Catalog number: 35005
Epoch time:      10182.82763045
Element set:     363
Inclination:      040.4690 deg
RA of node:       114.2611 deg
Eccentricity:    0.0017013
Arg of perigee:   159.2173 deg
Mean anomaly:     200.9347 deg
Mean motion:   15.52184970 rev/day
Decay rate:     3.2718e-04 rev/day^2
Epoch rev:            6302
Checksum:              260

Satellite: DRAGNSAT
Catalog number: 35690
Epoch time:      10076.22711312
Element set:     316
Inclination:      051.6170 deg
RA of node:       315.4586 deg
Eccentricity:    0.0004999
Arg of perigee:   310.9891 deg
Mean anomaly:     057.3269 deg
Mean motion:   16.42150010 rev/day
Decay rate:   5.715194e-02 rev/day^2
Epoch rev:            3656
Checksum:              289

Satellite: POLLUX
Catalog number: 35693
Epoch time:      10087.99866888
Element set:     352
Inclination:      051.6099 deg
RA of node:       254.5746 deg
Eccentricity:    0.0006270
Arg of perigee:   294.4866 deg
Mean anomaly:     097.5899 deg
Mean motion:   16.52338462 rev/day
Decay rate:  2.3496735e-01 rev/day^2
Epoch rev:            3839
Checksum:              384

Satellite: CASTOR
Catalog number: 35694
Epoch time:      10182.78538706
Element set:     520
Inclination:      051.6322 deg
RA of node:       121.7936 deg
Eccentricity:    0.0001362
Arg of perigee:   044.5801 deg
Mean anomaly:     315.5321 deg
Mean motion:   16.05351770 rev/day
Decay rate:    1.20917e-03 rev/day^2
Epoch rev:            5340
Checksum:              265

Satellite: METEOR-M
Catalog number: 35865
Epoch time:      10182.56045825
Element set:     431
Inclination:      098.7577 deg
RA of node:       236.2566 deg
Eccentricity:    0.0002403
Arg of perigee:   345.6614 deg
Mean anomaly:     014.4493 deg
Mean motion:   14.21830849 rev/day
Decay rate:       1.76e-06 rev/day^2
Epoch rev:            4076
Checksum:              299

Satellite: RS-38
Catalog number: 35869
Epoch time:      10182.60076597
Element set:     440
Inclination:      098.7565 deg
RA of node:       236.3305 deg
Eccentricity:    0.0004295
Arg of perigee:   336.0146 deg
Mean anomaly:     024.0831 deg
Mean motion:   14.21984272 rev/day
Decay rate:       1.77e-06 rev/day^2
Epoch rev:            4077
Checksum:              308

/EX


_______________________________________________
Via the Keps mailing list courtesy of AMSAT-NA
http://amsat.org/mailman/listinfo/keps

--- ViaMAIL!/WC v1.60d
 * Origin: Chowdanet (401-724-4410) telnet://chowdanet.com  (1:323/120)